Change the Weather History Date:

Thursday, March 13, 2014

  Actual Average (KPDC) Record (KPDC)
Temperature  
Mean Temperature 29 °F -  
Max Temperature 46 °F 42 °F 74 °F (1990)
Min Temperature 12 °F 25 °F -4 °F (1956)
Degree Days  
Heating Degree Days 36    
Moisture  
Dew Point 21 °F    
Average Humidity 73    
Maximum Humidity 88    
Minimum Humidity 55    
Precipitation  
Precipitation 0.00 in - - ()
Sea Level Pressure  
Sea Level Pressure 29.88 in    
Wind  
Wind Speed 3 mph (SSW)    
Max Wind Speed 16 mph    
Max Gust Speed 23 mph    
Visibility 10 miles    
Events Rain    
Averages and records for this station are not official NWS values.
T = Trace of Precipitation, MM = Missing Value Source: NWS Daily Summary

Daily Weather History Graph

Daily Weather History Graph

Search for Another Location

Airport or City:

Trip Planner

Search our weather history database for the weather conditions in past years. The results will help you decide how hot, cold, wet, or windy it might be!

Date:

Astronomy

Mar. 13, 2014 Rise Set
Actual Time 7:18 AM CDT 7:06 PM CDT
Civil Twilight 6:49 AM CDT 7:35 PM CDT
Nautical Twilight 6:16 AM CDT 8:08 PM CDT
Astronomical Twilight 5:43 AM CDT 8:41 PM CDT
Moon 4:29 PM CDT (3/13) 5:28 AM CDT (3/13)
Length of Visible Light 12h 45m
Length of Day
11h 48m
Waxing Gibbous, 91% of the Moon is Illuminated
Mar 13
Waxing Gibbous
Mar 16
Full
Mar 23
Last Quarter
Mar 30
New
Apr 7
First Quarter

Hourly Weather History & Observations

Time (CDT) Temp. Windchill Dew Point Humidity Pressure Visibility Wind Dir Wind Speed Gust Speed Precip Events Conditions
12:53 AM 16.0 °F - 10.9 °F 81% 30.14 in 10.0 mi Calm Calm - N/A   Clear
1:53 AM 15.1 °F - 10.9 °F 84% 30.13 in 10.0 mi Calm Calm - N/A   Clear
2:53 AM 12.9 °F - 10.0 °F 88% 30.12 in 10.0 mi Calm Calm - N/A   Clear
3:53 AM 12.9 °F - 9.0 °F 84% 30.10 in 10.0 mi Calm Calm - N/A   Clear
4:53 AM 12.9 °F - 9.0 °F 84% 30.10 in 10.0 mi Calm Calm - N/A   Clear
5:53 AM 12.0 °F - 8.1 °F 84% 30.10 in 10.0 mi Calm Calm - N/A   Clear
6:53 AM 14.0 °F - 10.9 °F 88% 30.09 in 10.0 mi Calm Calm - N/A   Overcast
7:53 AM 17.1 °F - 12.9 °F 84% 30.06 in 10.0 mi Calm Calm - N/A   Overcast
8:53 AM 19.0 °F - 15.1 °F 85% 30.06 in 10.0 mi Calm Calm - N/A   Overcast
9:53 AM 27.0 °F 20.5 °F 17.1 °F 66% 30.03 in 10.0 mi SSW 5.8 mph - N/A   Overcast
10:53 AM 30.0 °F 21.1 °F 18.0 °F 61% 29.99 in 10.0 mi SSW 10.4 mph 17.3 mph N/A   Overcast
11:53 AM 34.0 °F 24.2 °F 21.0 °F 59% 29.97 in 10.0 mi SW 15.0 mph 21.9 mph 0.00 in Rain Light Rain
12:53 PM 37.0 °F 27.7 °F 25.0 °F 62% 29.95 in 10.0 mi SW 16.1 mph - 0.00 in   Clear
1:53 PM 39.0 °F 32.3 °F 26.1 °F 60% 29.92 in 10.0 mi SSW 10.4 mph - 0.00 in   Clear
2:53 PM 41.0 °F 34.7 °F 27.0 °F 57% 29.89 in 10.0 mi SSW 10.4 mph - N/A   Clear
3:53 PM 44.1 °F 38.6 °F 28.9 °F 55% 29.53 in 10.0 mi South 10.4 mph - N/A   Clear
4:53 PM 45.0 °F 38.5 °F 30.0 °F 56% 29.53 in 10.0 mi SSW 13.8 mph 23.0 mph N/A   Clear
5:53 PM 46.0 °F 43.1 °F 30.9 °F 56% 29.53 in 10.0 mi SSW 5.8 mph - N/A   Clear
6:53 PM 44.1 °F 41.5 °F 32.0 °F 63% 29.53 in 10.0 mi SSW 4.6 mph - N/A   Clear
7:53 PM 41.0 °F 39.0 °F 32.0 °F 70% 29.53 in 10.0 mi SW 3.5 mph - N/A   Clear
8:53 PM 33.1 °F - 28.0 °F 82% 29.80 in 10.0 mi Calm Calm - N/A   Clear
9:53 PM 30.9 °F 26.2 °F 27.0 °F 85% 29.53 in 10.0 mi SW 4.6 mph - N/A   Clear
10:53 PM 32.0 °F 27.5 °F 28.9 °F 88% 29.75 in 9.0 mi WSW 4.6 mph - N/A   Clear
11:53 PM 39.9 °F 35.8 °F 33.1 °F 77% 29.71 in 10.0 mi Variable 5.8 mph - N/A   Clear